FW8891 Weather Reports


Display with metric or nautical units.
time (UTC)temp
F
wind
direction
speed
MPH
gust
MPH
rain 1hr
in
rain 24hr
in
rain mn
in
humidity
%
barometer
mb
20260506051058 67 233 2.0 5.0 0.00 0.00 0.00 38 1013.1
20260506050559 67 221 2.0 6.0 0.00 0.00 0.00 37 1013.1
20260506050104 67 247 2.0 6.0 0.00 0.00 0.00 37 1013.0
20260506045058 67 238 2.0 4.0 0.00 0.00 0.00 37 1013.0
20260506044604 68 232 2.0 4.0 0.00 0.00 0.00 37 1012.9
20260506044058 68 245 1.0 5.0 0.00 0.00 0.00 37 1012.8
20260506043558 68 172 2.0 5.0 0.00 0.00 0.00 37 1012.8
20260506043102 68 217 2.0 4.0 0.00 0.00 0.00 36 1012.7
20260506042558 68 243 1.0 5.0 0.00 0.00 0.00 36 1012.7
20260506042059 68 148 2.0 5.0 0.00 0.00 0.00 36 1012.7
20260506041607 68 162 2.0 5.0 0.00 0.00 0.00 36 1012.6
20260506041058 68 166 1.0 5.0 0.00 0.00 0.00 36 1012.5
20260506040558 68 229 2.0 6.0 0.00 0.00 0.00 35 1012.5
20260506040104 69 217 4.0 7.0 0.00 0.00 0.00 35 1012.4
20260506035600 69 176 3.0 7.0 0.00 0.00 0.00 35 1012.4
20260506035059 69 179 4.0 7.0 0.00 0.00 0.00 35 1012.3
20260506034614 69 162 4.0 8.0 0.00 0.00 0.00 35 1012.2
20260506034100 69 212 4.0 10.0 0.00 0.00 0.00 34 1012.2
20260506033559 69 193 5.0 10.0 0.00 0.00 0.00 34 1012.1
20260506033059 70 182 5.0 10.0 0.00 0.00 0.00 34 1012.0
20260506032559 70 226 5.0 10.0 0.00 0.00 0.00 34 1012.0
20260506032103 70 151 5.0 10.0 0.00 0.00 0.00 34 1011.9
20260506031605 70 220 6.0 10.0 0.00 0.00 0.00 34 1011.8
20260506031059 70 194 4.0 14.0 0.00 0.00 0.00 33 1011.8
20260506030600 70 247 5.0 14.0 0.00 0.00 0.00 33 1011.7
20260506025558 71 160 5.0 11.0 0.00 0.00 0.00 33 1011.5
20260506025058 71 170 7.0 12.0 0.00 0.00 0.00 32 1011.5
20260506024558 71 240 7.0 12.0 0.00 0.00 0.00 32 1011.4
20260506024058 71 141 6.0 12.0 0.00 0.00 0.00 32 1011.4
20260506023558 71 221 6.0 12.0 0.00 0.00 0.00 32 1011.3
20260506023100 71 232 7.0 12.0 0.00 0.00 0.00 32 1011.2
20260506022559 72 229 6.0 12.0 0.00 0.00 0.00 31 1011.2
20260506022058 72 150 8.0 12.0 0.00 0.00 0.00 31 1011.1
20260506021600 72 198 6.0 13.0 0.00 0.00 0.00 31 1011.1
20260506021058 72 214 8.0 13.0 0.00 0.00 0.00 31 1010.9
20260506020559 73 248 7.0 12.0 0.00 0.00 0.00 30 1010.9
20260506015559 73 266 5.0 12.0 0.00 0.00 0.00 30 1010.8
20260506015100 73 248 5.0 11.0 0.00 0.00 0.00 29 1010.7
20260506014558 74 227 6.0 11.0 0.00 0.00 0.00 29 1010.6
20260506014101 75 321 5.0 11.0 0.00 0.00 0.00 28 1010.5
20260506013558 75 141 5.0 10.0 0.00 0.00 0.00 28 1010.4
20260506013100 74 239 4.0 10.0 0.00 0.00 0.00 28 1010.4
20260506012559 75 266 5.0 10.0 0.00 0.00 0.00 28 1010.4
20260506012057 75 198 4.0 12.0 0.00 0.00 0.00 28 1010.3
20260506011608 76 248 7.0 17.0 0.00 0.00 0.00 28 1010.3
20260506011101 76 216 5.0 17.0 0.00 0.00 0.00 27 1010.3
20260506010603 76 136 6.0 12.0 0.00 0.00 0.00 27 1010.1
20260506010101 77 243 5.0 15.0 0.00 0.00 0.00 27 1010.1
20260506005558 76 198 7.0 15.0 0.00 0.00 0.00 27 1010.0
20260506005058 77 162 6.0 11.0 0.00 0.00 0.00 27 1010.0
20260506004600 77 238 5.0 12.0 0.00 0.00 0.00 27 1010.0
20260506004058 77 242 7.0 14.0 0.00 0.00 0.00 27 1010.0
20260506003601 77 261 8.0 14.0 0.00 0.00 0.00 27 1010.0
20260506003101 78 262 7.0 14.0 0.00 0.00 0.00 27 1009.9
20260506002559 78 269 7.0 14.0 0.00 0.00 0.00 27 1009.9
20260506002058 77 271 6.0 14.0 0.00 0.00 0.00 27 1009.8
20260506001601 77 239 7.0 14.0 0.00 0.00 0.00 28 1009.9
20260506001101 76 239 6.0 12.0 0.00 0.00 0.00 28 1009.9
20260506000600 76 252 7.0 12.0 0.00 0.00 0.00 28 1009.8
20260505235559 78 249 6.0 16.0 0.00 0.00 0.00 28 1009.9
20260505235101 78 167 6.0 17.0 0.00 0.00 0.00 27 1009.8
20260505234605 78 287 8.0 17.0 0.00 0.00 0.00 27 1009.8
20260505234058 78 169 9.0 16.0 0.00 0.00 0.00 27 1009.6
20260505233602 79 266 5.0 14.0 0.00 0.00 0.00 28 1009.6
20260505233111 78 145 8.0 14.0 0.00 0.00 0.00 28 1009.6
20260505232558 77 211 7.0 19.0 0.00 0.00 0.00 28 1009.7
20260505232059 77 224 6.0 19.0 0.00 0.00 0.00 28 1009.6
20260505231606 76 225 9.0 15.0 0.00 0.00 0.00 28 1009.5
20260505231103 77 207 4.0 16.0 0.00 0.00 0.00 28 1009.6
20260505230600 77 223 5.0 16.0 0.00 0.00 0.00 28 1009.7
20260505230100 77 224 9.0 16.0 0.00 0.00 0.00 28 1009.7
20260505225559 78 248 7.0 13.0 0.00 0.00 0.00 28 1009.7
20260505225059 79 231 4.0 13.0 0.00 0.00 0.00 28 1009.8
20260505224603 79 262 7.0 15.0 0.00 0.00 0.00 28 1009.8
20260505224058 79 206 10.0 15.0 0.00 0.00 0.00 27 1009.9
20260505223558 79 157 7.0 12.0 0.00 0.00 0.00 27 1009.9
20260505223102 78 159 5.0 12.0 0.00 0.00 0.00 28 1010.0
20260505222558 79 165 5.0 13.0 0.00 0.00 0.00 28 1010.1
20260505222058 79 167 6.0 13.0 0.00 0.00 0.00 27 1010.3
20260505221604 79 196 7.0 16.0 0.00 0.00 0.00 27 1010.3
20260505221059 78 242 8.0 16.0 0.00 0.00 0.00 28 1010.3
20260505220600 78 173 7.0 15.0 0.00 0.00 0.00 28 1010.4
20260505220100 78 270 5.0 14.0 0.00 0.00 0.00 29 1010.6
20260505215600 78 191 8.0 14.0 0.00 0.00 0.00 28 1010.7
20260505215059 78 230 5.0 14.0 0.00 0.00 0.00 28 1010.6
20260505214602 77 225 8.0 21.0 0.00 0.00 0.00 29 1010.7
20260505214058 76 194 7.0 21.0 0.00 0.00 0.00 30 1010.7
20260505213600 77 172 8.0 16.0 0.00 0.00 0.00 30 1010.8
20260505213102 76 154 2.0 10.0 0.00 0.00 0.00 30 1010.9
20260505212559 76 290 4.0 14.0 0.00 0.00 0.00 30 1010.9
20260505212059 76 204 8.0 14.0 0.00 0.00 0.00 30 1011.0
20260505211611 77 127 7.0 13.0 0.00 0.00 0.00 29 1011.0
20260505211100 78 224 6.0 14.0 0.00 0.00 0.00 30 1011.2
20260505210600 77 196 7.0 14.0 0.00 0.00 0.00 29 1011.2
20260505210103 78 245 8.0 13.0 0.00 0.00 0.00 29 1011.2
20260505205558 77 139 5.0 11.0 0.00 0.00 0.00 30 1011.2
20260505205101 78 189 5.0 10.0 0.00 0.00 0.00 30 1011.3
20260505204605 78 222 3.0 16.0 0.00 0.00 0.00 29 1011.4
20260505204058 79 113 6.0 16.0 0.00 0.00 0.00 29 1011.3
20260505203558 78 269 6.0 14.0 0.00 0.00 0.00 30 1011.3
20260505203059 78 239 6.0 14.0 0.00 0.00 0.00 29 1011.4
20260505202559 79 276 6.0 14.0 0.00 0.00 0.00 29 1011.5
20260505202058 78 226 8.0 14.0 0.00 0.00 0.00 30 1011.4
20260505201602 79 156 6.0 12.0 0.00 0.00 0.00 30 1011.5
20260505201101 80 193 6.0 12.0 0.00 0.00 0.00 29 1011.5
20260505200558 79 264 5.0 12.0 0.00 0.00 0.00 30 1011.5
20260505195558 78 134 4.0 12.0 0.00 0.00 0.00 30 1011.6
20260505195058 78 204 5.0 12.0 0.00 0.00 0.00 31 1011.6
20260505194619 76 157 4.0 13.0 0.00 0.00 0.00 33 1011.6
20260505194059 75 71 5.0 13.0 0.00 0.00 0.00 33 1011.6
20260505193601 76 156 8.0 13.0 0.00 0.00 0.00 32 1011.7
20260505193101 76 248 4.0 12.0 0.00 0.00 0.00 32 1011.8
20260505192601 77 283 6.0 12.0 0.00 0.00 0.00 33 1011.8
20260505192059 76 150 2.0 13.0 0.00 0.00 0.00 34 1011.8
20260505191559 76 155 7.0 13.0 0.00 0.00 0.00 34 1011.9
20260505191059 75 172 3.0 10.0 0.00 0.00 0.00 36 1011.9
20260505190601 75 165 4.0 10.0 0.00 0.00 0.00 36 1011.9
20260505190100 75 254 2.0 9.0 0.00 0.00 0.00 38 1012.1
20260505185602 74 80 4.0 9.0 0.00 0.00 0.00 38 1012.1
20260505185101 74 184 5.0 9.0 0.00 0.00 0.00 37 1012.1
20260505184604 74 271 6.0 9.0 0.00 0.00 0.00 38 1012.0
20260505184059 75 177 2.0 9.0 0.00 0.00 0.00 38 1012.1
20260505183601 75 215 3.0 9.0 0.00 0.00 0.00 37 1012.1
20260505183058 76 246 1.0 11.0 0.00 0.00 0.00 38 1012.0
20260505182557 78 121 6.0 13.0 0.00 0.00 0.00 36 1012.2
20260505182058 78 115 5.0 13.0 0.00 0.00 0.00 37 1012.2
20260505181600 77 153 4.0 12.0 0.00 0.00 0.00 37 1012.3
20260505181058 76 180 7.0 12.0 0.00 0.00 0.00 38 1012.2
20260505180558 76 125 6.0 9.0 0.00 0.00 0.00 39 1012.2
20260505180058 75 162 3.0 13.0 0.00 0.00 0.00 39 1012.3
20260505175559 76 119 4.0 13.0 0.00 0.00 0.00 39 1012.4
20260505175059 75 179 4.0 13.0 0.00 0.00 0.00 38 1012.3
20260505174602 75 308 3.0 13.0 0.00 0.00 0.00 39 1012.3
20260505174059 75 137 5.0 13.0 0.00 0.00 0.00 39 1012.3
20260505173558 75 147 3.0 9.0 0.00 0.00 0.00 39 1012.3
20260505173100 75 240 4.0 9.0 0.00 0.00 0.00 39 1012.3
20260505172558 74 191 1.0 7.0 0.00 0.00 0.00 39 1012.2
20260505172058 74 217 1.0 8.0 0.00 0.00 0.00 39 1012.2
20260505171605 73 129 4.0 8.0 0.00 0.00 0.00 41 1012.3
20260505171059 72 144 4.0 8.0 0.00 0.00 0.00 41 1012.3
20260505170558 73 174 3.0 6.0 0.00 0.00 0.00 40 1012.3
20260505170059 73 255 3.0 6.0 0.00 0.00 0.00 40 1012.3
20260505165558 74 226 1.0 10.0 0.00 0.00 0.00 39 1012.3
20260505165058 74 200 5.0 10.0 0.00 0.00 0.00 38 1012.3
20260505164622 73 155 0.0 5.0 0.00 0.00 0.00 39 1012.2
20260505164100 71 127 1.0 5.0 0.00 0.00 0.00 39 1012.1
20260505163559 71 145 2.0 5.0 0.00 0.00 0.00 39 1012.2
20260505163107 72 130 2.0 4.0 0.00 0.00 0.00 38 1012.2
20260505162559 72 117 1.0 3.0 0.00 0.00 0.00 38 1012.3
20260505162059 72 94 0.0 3.0 0.00 0.00 0.00 38 1012.2
20260505161614 72 0 1.0 3.0 0.00 0.00 0.00 38 1012.3
20260505161059 72 143 1.0 5.0 0.00 0.00 0.00 38 1012.3
20260505160559 71 261 2.0 5.0 0.00 0.00 0.00 39 1012.4
20260505153107 67 324 0.0 3.0 0.00 0.00 0.00 48 1012.4
20260505152558 67 291 1.0 3.0 0.00 0.00 0.00 49 1012.5
20260505152058 66 262 1.0 3.0 0.00 0.00 0.00 49 1012.5
20260505151558 66 0 0.0 3.0 0.00 0.00 0.00 49 1012.5
20260505151102 66 0 0.0 4.0 0.00 0.00 0.00 49 1012.5
20260505150559 66 172 1.0 4.0 0.00 0.00 0.00 50 1012.5
20260505140559 64 0 0.0 0.0 0.00 0.00 0.00 60 1012.0
20260505130113 62 0 0.0 0.0 0.00 0.00 0.00 63 1011.7
20260505124605 62 0 0.0 1.0 0.00 0.00 0.00 63 1011.4
20260505124058 62 0 0.0 3.0 0.00 0.00 0.00 63 1011.4
20260505123558 62 0 1.0 3.0 0.00 0.00 0.00 63 1011.4
20260505123110 62 151 0.0 3.0 0.00 0.00 0.00 63 1011.5
20260505122558 62 0 1.0 3.0 0.00 0.00 0.00 62 1011.4
20260505122058 62 221 1.0 5.0 0.00 0.00 0.00 62 1011.4
20260505121559 62 146 1.0 5.0 0.00 0.00 0.00 62 1011.3
20260505121103 62 150 2.0 5.0 0.00 0.00 0.00 62 1011.3
20260505120559 62 188 2.0 4.0 0.00 0.00 0.00 62 1011.2
20260505120116 62 200 2.0 5.0 0.00 0.00 0.00 62 1011.2
20260505115558 63 150 2.0 5.0 0.00 0.00 0.00 62 1011.1
20260505115102 63 200 2.0 4.0 0.00 0.00 0.00 61 1011.1
20260505114603 63 141 2.0 6.0 0.00 0.00 0.00 61 1011.1
20260505114058 63 166 2.0 6.0 0.00 0.00 0.00 60 1011.1
20260505113557 63 139 2.0 5.0 0.00 0.00 0.00 60 1011.1
20260505113105 64 140 3.0 6.0 0.00 0.00 0.00 60 1011.0
20260505112601 64 126 2.0 6.0 0.00 0.00 0.00 59 1010.9
20260505112059 64 115 2.0 5.0 0.00 0.00 0.00 59 1011.0
20260505111602 64 134 2.0 5.0 0.00 0.00 0.00 59 1010.9
20260505111059 64 146 2.0 6.0 0.00 0.00 0.00 58 1010.9
20260505110559 65 127 3.0 6.0 0.00 0.00 0.00 58 1010.9
20260505110123 65 94 3.0 7.0 0.00 0.00 0.00 57 1011.0
20260505102059 66 166 1.0 5.0 0.00 0.00 0.00 55 1011.3
20260505101603 66 125 2.0 5.0 0.00 0.00 0.00 54 1011.5
20260505101059 66 160 1.0 5.0 0.00 0.00 0.00 54 1011.4
20260505100601 66 141 2.0 5.0 0.00 0.00 0.00 54 1011.4
20260505100059 67 108 3.0 6.0 0.00 0.00 0.00 54 1011.5
20260505095558 67 180 2.0 6.0 0.00 0.00 0.00 54 1011.6
20260505095059 67 141 2.0 5.0 0.00 0.00 0.00 54 1011.6
20260505094559 67 167 2.0 5.0 0.00 0.00 0.00 53 1011.7
20260505094058 67 131 2.0 8.0 0.00 0.00 0.00 53 1011.7
20260505093558 67 214 4.0 11.0 0.00 0.00 0.00 53 1011.8
20260505093108 67 169 5.0 11.0 0.00 0.00 0.00 53 1011.8
20260505092558 67 236 6.0 10.0 0.00 0.00 0.00 53 1011.9
20260505092100 68 173 6.0 10.0 0.00 0.00 0.00 54 1011.9
20260505091556 68 210 4.0 9.0 0.00 0.00 0.00 54 1011.9
20260505091058 68 148 6.0 9.0 0.00 0.00 0.00 53 1011.9
20260505090559 68 230 3.0 10.0 0.00 0.00 0.00 53 1012.0
20260505090056 68 183 3.0 10.0 0.00 0.00 0.00 53 1012.0
20260505085559 68 236 4.0 9.0 0.00 0.00 0.00 53 1012.0
20260505085058 68 231 4.0 10.0 0.00 0.00 0.00 53 1012.2
20260505084559 68 210 5.0 11.0 0.00 0.00 0.00 53 1012.2
20260505084059 68 188 6.0 11.0 0.00 0.00 0.00 52 1012.2
20260505083558 69 169 6.0 11.0 0.00 0.00 0.00 49 1012.2
20260505083058 69 179 4.0 7.0 0.00 0.00 0.00 40 1012.3
20260505082602 69 179 3.0 7.0 0.00 0.00 0.00 38 1012.4
20260505082059 69 178 4.0 7.0 0.00 0.00 0.00 39 1012.4
20260505081618 69 205 3.0 6.0 0.00 0.00 0.00 39 1012.4
20260505081059 68 188 3.0 5.0 0.00 0.00 0.00 40 1012.4
20260505080558 68 210 2.0 5.0 0.00 0.00 0.00 40 1012.6
20260505080109 68 166 2.0 5.0 0.00 0.00 0.00 41 1012.4
20260505075558 68 170 2.0 4.0 0.00 0.00 0.00 42 1012.5
20260505075058 68 266 2.0 4.0 0.00 0.00 0.00 44 1012.5
20260505074557 68 163 1.0 2.0 0.00 0.00 0.00 46 1012.5
20260505074058 68 0 0.0 1.0 0.00 0.00 0.00 47 1012.4
20260505073558 68 0 0.0 0.0 0.00 0.00 0.00 46 1012.3
20260505073058 68 0 0.0 0.0 0.00 0.00 0.00 46 1012.1
20260505072559 68 0 0.0 0.0 0.00 0.00 0.00 46 1012.2
20260505072058 68 0 0.0 0.0 0.00 0.00 0.00 46 1012.3
20260505071617 68 0 0.0 0.0 0.00 0.00 0.00 47 1012.2
20260505071059 68 0 0.0 0.0 0.00 0.00 0.00 46 1012.4
20260505070601 69 0 0.0 0.0 0.00 0.00 0.00 46 1012.3
20260505070111 69 0 0.0 0.0 0.00 0.00 0.00 45 1012.4
20260505065559 69 0 0.0 0.0 0.00 0.00 0.00 44 1012.2
20260505065058 69 0 0.0 0.0 0.00 0.00 0.00 44 1012.3
20260505064609 69 0 0.0 1.0 0.00 0.00 0.00 43 1012.1
20260505064101 70 0 0.0 1.0 0.00 0.00 0.00 43 1012.1
20260505063559 70 261 0.0 2.0 0.00 0.00 0.00 44 1012.3
20260505063058 70 0 0.0 2.0 0.00 0.00 0.00 43 1012.3
20260505062558 70 276 1.0 3.0 0.00 0.00 0.00 44 1012.2
20260505062101 70 256 0.0 4.0 0.00 0.00 0.00 43 1012.3
20260505061602 70 234 1.0 4.0 0.00 0.00 0.00 43 1012.3
20260505061059 70 266 1.0 3.0 0.00 0.00 0.00 44 1012.1
20260505060559 70 274 0.0 2.0 0.00 0.00 0.00 43 1012.3
20260505060059 70 0 0.0 1.0 0.00 0.00 0.00 43 1012.0
20260505055559 70 0 0.0 1.0 0.00 0.00 0.00 45 1011.9
20260505055059 70 0 0.0 3.0 0.00 0.00 0.00 44 1012.0
20260505054602 70 285 0.0 3.0 0.00 0.00 0.00 44 1012.2
20260505054101 70 254 2.0 3.0 0.00 0.00 0.00 46 1012.2
20260505053559 70 261 1.0 2.0 0.00 0.00 0.00 46 1012.3
20260505053106 71 245 0.0 1.0 0.00 0.00 0.00 45 1012.3